Volver al catálogo

COSMOS 1291

ActivoMilitarLEO
NORAD 12640·PAYLOAD·🇷🇺 Russia

Lanzado Aug 6, 1981 desde Plesetsk Cosmodrome

Loading…

Próximos Pases (próximas 24 horas)

TLE

ActualizadoSource: Space-Track

Época: Sep 14, 2026, 13:06 UTC

1 12640U 81074E   26257.54611182  .00000002  00000-0  11621-3 0  9999
2 12640  74.0347 180.9421 0003846 127.2712 342.8252 12.50888419 59655

Sigue COSMOS 1291 en tiempo real con AllMySat

Download on the App Store